Regional Weather Roundup
Issued by NWS Cleveland, OH

Home | Current Version | Previous Version | Graphics & Text | Print | Product List | Glossary On
Versions: 1 2 3 4 5 6 7 8 9 10 11 12 13 14 15 16 17 18 19 20 21 22 23 24 25 26 27 28 29 30 31 32 33 34 35 36 37 38 39 40 41 42 43 44 45 46 47 48 49 50
000
ASUS41 KCLE 300310
RWRCLE
OHIO REGIONAL WEATHER ROUNDUP
NATIONAL WEATHER SERVICE CLEVELAND, OH
1100 PM EDT SAT AUG 29 2015

NOTE: "FAIR" INDICATES FEW OR NO CLOUDS BELOW 12,000 FEET WITH NO
SIGNIFICANT WEATHER AND/OR OBSTRUCTIONS TO VISIBILITY.

OHZ001>008-015>018-024>027-034-035-043-044-300400-
   NORTHWEST OHIO

CITY           SKY/WX    TMP DP  RH WIND       PRES   REMARKS
DEFIANCE       LGT RAIN  70  66  87 NE6       30.07S
FINDLAY        CLOUDY    73  68  84 E5        30.06F
TOLEDO EXPRESS LGT RAIN  69  68  96 CALM      30.07S FOG
TOLEDO EXEC    CLOUDY    70  67  90 N3        30.07F FOG
LIMA           LGT RAIN  71  66  84 E3        30.08S
$$

OHZ009>014-019>023-028>033-038-089-300400-
   NORTHEAST OHIO

CITY           SKY/WX    TMP DP  RH WIND       PRES   REMARKS
CLE-HOPKINS    CLOUDY    71  65  81 S6        30.10S
CLE-LAKEFRONT  CLOUDY    73  67  81 SE3       30.06F
CUY CO. ARPT   LGT RAIN  70  68  94 SE8       30.09S
LORAIN-ELYRIA  CLOUDY    69  64  84 E5        30.08F
ASHTABULA      CLOUDY    65  65 100 E6        30.10F FOG
AKRON-CANTON   MOCLDY    74  63  68 CALM      30.10S
WOOSTER        CLOUDY    71  63  75 SW3       30.10F
MANSFIELD      CLOUDY    71  64  78 S6        30.09F
YOUNGSTOWN     CLOUDY    70  63  78 CALM      30.10S
$$

OHZ042-051>053-060>062-070>072-077>081-300400-
  SOUTHWEST OHIO

CITY           SKY/WX    TMP DP  RH WIND       PRES   REMARKS
CINC-COVINGTON PTCLDY    70  66  87 S5        30.08S
CINC-LUNKEN    MOCLDY    69  69 100 CALM      30.08S FOG
HAMILTON       MOCLDY    71  68  90 SE3       30.08S
DAYTON         CLOUDY    74  65  73 S7        30.09S
WRIGHT-PAT AFB PTCLDY    73  68  82 S5        30.07S
DAYTON GENERAL CLOUDY    71  68  90 SE3       30.08S
WILMINGTON     CLOUDY    68  64  87 S3        30.09S
$$

OHZ036-037-039>041-045>050-054>059-063>069-073>076-082>088-300400-
  CENTRAL AND SOUTHEAST OHIO

CITY           SKY/WX    TMP DP  RH WIND       PRES   REMARKS
COLUMBUS       CLOUDY    70  64  81 CALM      30.08S
OSU AIRPORT    CLOUDY    73  66  78 S5        30.09S
BOLTON FIELD   CLOUDY    70  68  95 CALM      30.09S
RICKENBACK AFB CLOUDY    71  67  88 SW3       30.08S
NEWARK         FOG       68  67  96 CALM      30.09S VSB 1/2
MARION         CLOUDY    70  64  81 S7        30.08F
LANCASTER      CLOUDY    70  67  90 CALM      30.10S
ZANESVILLE     MOCLDY    73  64  73 CALM      30.10S
NEW PHILLY     MOCLDY    69  66  90 CALM      30.10S
$$



USA.gov is the U.S. government's official web portal to all federal, state and local government web resources and services.